Lid_Strength_Index
1 1 1 1 1 1 1 1 1 1 3 3 3 3 3 3 2 4 8 7 5 -2 -0 4 6 7 8 8 9 9 12 13 12 11 11 7 8 6 4 6 5 4 5 4 2
2 1 1 1 1 1 1 1 1 1 3 2 3 4 3 3 5 6 2 -1 -2 -2 6 8 7 7 9 10 10 11 14 12 8 8 9 7 7 7 7 7 7 6 4 3 3
2 2 1 1 1 1 1 1 1 1 3 3 3 4 3 3 6 4 -3 -2 -2 -1 5 7 7 7 10 11 10 9 11 9 7 6 6 7 7 6 7 9 7 7 5 4 3
2 2 2 2 1 1 1 1 1 1 2 3 3 3 3 5 10 5 -2 -2 -2 3 7 8 8 10 12 12 11 9 7 6 7 6 7 8 6 8 7 7 4 4 4 4 4
2 2 2 2 2 2 2 1 1 1 2 3 3 3 5 9 7 1 -1 -1 1 5 8 8 9 10 12 11 9 9 7 7 6 6 7 6 7 8 7 5 4 4 4 5 6
3 2 2 2 2 2 2 2 2 2 2 2 2 3 5 10 5 0 0 3 5 7 7 8 8 9 11 11 11 8 7 7 6 7 7 7 8 7 6 4 5 4 5 4 5
3 3 2 2 3 3 3 3 3 2 2 2 1 3 6 10 4 2 3 5 6 7 8 7 7 9 10 11 10 7 9 8 8 8 8 6 9 9 6 5 6 5 5 5 6
3 3 3 2 2 3 3 4 3 2 2 1 1 3 9 4 4 4 5 6 6 7 7 7 8 10 10 10 7 9 9 12 9 8 7 8 12 8 5 6 7 6 5 6 6
3 3 3 3 3 3 4 4 3 2 1 1 3 6 8 2 6 5 4 6 6 8 8 6 9 11 10 11 11 10 14 12 10 8 8 8 11 7 6 6 8 7 7 6 6
2 3 4 4 4 3 4 4 3 3 2 1 2 7 6 5 6 6 4 5 7 8 10 10 12 12 12 12 14 13 13 12 11 9 8 9 10 8 6 6 8 7 6 6 6
3 3 4 4 4 4 5 7 10 10 6 8 8 6 5 4 4 6 5 5 7 9 12 12 13 14 12 12 10 10 11 11 10 8 9 10 10 9 7 7 8 8 7 6 5
4 4 4 4 5 5 6 7 8 8 11 7 7 6 5 4 6 5 5 7 8 11 11 13 14 12 11 10 9 10 11 11 10 8 9 10 10 8 8 7 7 8 7 6 5
5 5 4 4 5 6 8 7 5 7 12 9 7 7 7 6 7 7 5 8 10 11 12 14 12 10 10 11 11 10 11 11 10 9 9 11 11 10 8 7 6 6 7 6 6
5 5 5 5 7 8 8 5 4 6 13 11 8 7 7 6 7 4 4 7 10 11 11 13 11 11 11 11 11 14 10 9 10 11 14 10 16 12 10 9 8 7 7 6 5
5 5 5 5 8 8 6 5 4 8 19 9 8 6 7 8 6 6 5 7 11 10 11 12 12 12 12 11 10 12 10 10 10 12 13 13 16 13 11 12 10 8 7 6 5
6 6 5 6 8 6 5 6 9 13 17 9 9 10 9 8 7 6 7 7 7 11 11 10 10 10 11 10 9 9 10 12 13 14 15 13 15 13 14 12 10 8 7 6 6
6 6 6 6 8 6 6 9 14 16 10 9 10 10 10 9 8 8 9 10 12 14 15 11 11 10 9 12 11 12 14 17 17 17 17 13 14 12 10 9 9 8 7 6 6
7 6 7 6 7 6 6 11 17 12 11 8 9 10 11 9 9 9 10 11 11 12 14 15 15 11 9 11 13 13 13 16 18 18 16 13 16 13 9 8 7 7 7 6 6
7 8 8 6 5 5 10 15 15 11 9 10 10 12 12 10 9 10 10 11 10 11 13 15 14 9 9 9 10 13 15 12 15 15 16 14 13 10 9 9 8 8 7 7 6
8 9 8 5 4 6 11 13 12 8 9 9 12 11 13 11 11 11 12 9 9 9 10 11 14 10 8 9 11 11 10 15 16 18 18 15 17 15 12 11 9 9 8 7 6
8 8 5 4 4 8 12 12 11 8 9 10 12 12 10 11 11 12 11 8 8 9 9 11 12 12 10 11 11 12 14 13 13 14 16 18 17 11 10 10 10 9 8 7 6
7 10 4 3 9 9 11 11 9 9 8 10 10 11 10 10 10 11 10 9 7 9 11 11 13 14 13 10 9 11 12 12 15 16 15 15 15 9 9 8 8 9 8 6 6
8 8 3 5 11 12 10 9 8 9 9 10 11 10 10 12 11 9 9 7 8 9 11 11 14 16 14 13 10 11 12 12 13 13 15 16 14 8 9 9 8 8 7 6 6
7 10 6 6 8 10 10 9 10 7 8 8 10 10 11 12 10 10 10 8 7 8 5 8 13 14 15 13 11 11 11 10 11 15 14 14 12 11 10 10 9 8 7 6 6
7 9 7 11 10 9 9 9 10 10 8 8 9 11 11 13 12 12 10 9 7 7 9 11 13 13 12 10 10 11 11 11 12 12 12 11 12 10 9 9 9 7 7 7 9
7 8 6 8 8 9 10 11 10 9 9 9 11 9 10 13 11 11 10 11 11 8 11 11 13 12 13 10 10 11 10 10 10 11 11 11 12 8 8 7 8 8 7 9 10
6 5 6 8 9 10 10 10 9 8 7 8 9 10 9 10 7 7 8 8 9 10 10 11 12 13 14 10 10 13 11 10 10 10 10 13 10 9 10 9 8 8 7 8 9